CZ-2D DEB (43037 NORAD) Tracking and Keplerian Element Data

This shows tracking and keplerian element data for the satellite.

Feedback or suggestion? Click here.




ElementValue
Catalog43037
NameCZ-2D DEB
Epoch Orbit438
Epoch Day1.6787948
Epoch Year2018
RAAN80.0205
Inclination97.5543
Eccentricity0.0055199
Argument of Perigee216.8008
Mean Anonmoly142.9392
Mean Motion15.35361195
Decay Rate4.693E-05
L11 43037U 17077D 18001.67879480 .00004693 00000-0 13253-3 0 9997
L22 43037 97.5543 80.0205 0055199 216.8008 142.9392 15.35361195 4385

Live tracking and technical data element details for CZ-2D DEB (NORAD 43037). CZ-2D DEB can be tracked NOW for your location showing map with azimuth and elevation plus other details from your city location.

Track the satellite on the map from your city or location and see movement details for azimuth, elevation, latitude, longitude, range, height, and movement on the map or in text.







IsCatalogInMostPopularTable: catalog: 43037, numindb: 113
Update: records affected: 1



GetName: 43037 CZ-2D DEB

Hit Count: updated at: Mon, 19 Nov 2018 13:04:42 GMT